Location: Star Hoppers Observatory
(42.7905°N, 83.6127°W)
Time: 09:44:52
(UTC-04:00)

Daily predictions for brighter satellites

Satellite Brightness Start Highest point End
(mag) Time Altitude Azimuth Time Altitude Azimuth Time Altitude Azimuth
SJ-11-01 4.4 21:23:51 10° SSE 21:28:25 59° ENE 21:33:02 10° N
Cosmos 1606 Rocket 3.6 21:24:30 10° N 21:28:58 69° E 21:33:21 10° SSE
Meteor 1-19 Rocket 4.3 21:26:51 10° S 21:32:24 65° E 21:37:57 10° NNE
CZ-4 DEB 4.0 21:32:43 10° S 21:35:48 42° W 21:38:55 10° NNW
H-2A R/B 2.1 21:32:52 10° SSE 21:37:04 69° ENE 21:41:23 10° N
Meteor 2-4 Rocket 4.0 21:32:23 10° S 21:38:02 54° E 21:43:48 10° NNE
Cosmos 1331 Rocket 4.1 21:33:00 10° NNW 21:38:13 66° ENE 21:43:21 10° SSE
CZ-2C R/B 0.8 21:37:21 10° S 21:39:37 64° WSW 21:41:57 10° NNW
Cosmos 2333 Rocket 3.0 21:36:37 10° SW 21:42:11 59° WNW 21:47:47 10° NNE
SPOT 5 3.3 21:38:50 10° SE 21:42:57 39° ENE 21:47:00 10° N
Cosmos 2297 3.8 21:39:35 10° NNW 21:45:20 84° ENE 21:51:04 10° SSE
Cosmos 1302 Rocket 4.5 21:41:33 10° N 21:46:36 47° ENE 21:51:34 10° SE
Cosmos 2098 Rocket 4.2 21:47:00 10° NNW 21:49:57 33° W 21:53:25 10° SSW
H-2A R/B 4.4 21:48:18 10° SSW 21:51:56 35° W 21:55:37 10° NNW
CZ-4 SHROUD 3.7 21:49:26 10° SSE 21:52:25 45° ENE 21:55:28 10° N
APEX 4.0 21:49:04 10° NNW 21:52:48 48° ENE 21:57:10 12° SE
Lacrosse 5 3.7 21:50:56 10° W 21:55:35 36° NNW 22:00:16 10° NE
USA 186 4.2 21:55:11 10° SW 21:57:21 18° W 21:59:25 10° NW
ATLAS CENTAUR R/B 2.5 21:52:59 10° SW 21:57:54 62° NW 22:02:56 10° NNE
SeaSat 1 2.5 21:53:11 10° SE 21:58:06 76° ENE 22:03:03 10° NNW
CZ-4B R/B 4.2 21:54:46 10° NNE 21:59:21 34° E 22:04:00 10° SSE
Cosmos 2228 3.1 21:59:14 10° N 22:03:38 70° E 22:07:57 10° SSE
Cosmos 2251 Rocket 4.0 21:59:37 10° SSW 22:04:54 68° WNW 22:10:15 10° NNE
Cosmos 1892 Rocket 4.1 22:01:52 10° SSW 22:06:15 63° W 22:10:42 10° N
Cosmos 1025 Rocket 4.4 22:02:07 10° SSW 22:06:19 43° WNW 22:10:31 10° N
BREEZE-M DEB (TANK) 2.6 22:09:31 10° WNW 22:12:02 38° SW 22:13:12 20° SSE
Tsikada Rocket 4.2 22:08:11 10° SSE 22:14:25 56° E 22:20:39 10° NNE
Nimbus 7 Rocket 4.5 22:09:15 10° NNE 22:15:16 89° W 22:21:11 10° SSW
ALOS 4.5 22:11:34 10° SSW 22:15:17 23° W 22:19:01 10° NW
YAOGAN 6 3.3 22:13:00 18° SE 22:15:24 40° ENE 22:18:56 10° N
Atlas Centaur 2 4.0 22:09:29 10° SSW 22:15:33 24° SSE 22:20:37 14° ESE
Terra 3.7 22:13:07 11° E 22:15:55 17° ENE 22:18:55 10° NNE
COSMOS 2455 3.6 22:14:03 10° SSE 22:19:14 31° ESE 22:24:27 10° NE
Meteor 1-15 Rocket 4.3 22:15:30 10° NNW 22:21:05 79° W 22:26:43 10° S
Cosmos 2237 Rocket 4.1 22:16:26 10° WSW 22:21:27 33° NW 22:26:32 10° N
ATLAS 3B R/B 4.1 22:18:09 15° SE 22:21:40 21° ESE 22:26:59 10° ENE
Envisat 3.2 22:16:54 10° S 22:21:58 75° WSW 22:27:04 10° NNW
MetOp-A 4.1 22:17:22 14° SSE 22:22:00 76° ENE 22:27:23 10° N
SL-8 R/B 4.5 22:17:50 10° W 22:22:35 54° NNW 22:27:21 10° ENE
Cosmos 2285 Rocket 4.3 22:17:18 10° NNW 22:23:33 66° WSW 22:29:39 11° S
ERS-1 Rocket 4.3 22:19:07 10° SSW 22:23:44 36° W 22:28:22 10° NNW
Cosmos 1939 Rocket 3.8 22:20:02 10° S 22:24:04 49° W 22:28:07 10° NNW
GRACE-1 3.8 22:23:28 10° N 22:26:23 88° ESE 22:28:10 20° S
GRACE-2 3.8 22:23:55 10° N 22:26:49 88° ESE 22:28:35 21° S
Cosmos 2278 Rocket 4.2 22:23:02 10° NW 22:27:26 23° WSW 22:31:47 10° SSW
PSLV R/B 4.1 22:30:19 15° S 22:32:39 45° W 22:35:40 10° NNW
USA 234 3.3 22:27:51 18° SE 22:32:58 78° SW 22:39:34 10° NW
Lacrosse 5 rocket 2.9 22:37:42 10° WSW 22:41:20 36° NW 22:45:11 10° NE
Cosmos 2369 Rocket 3.1 22:37:44 10° N 22:42:57 36° ENE 22:46:13 20° ESE
Cosmos 1666 4.1 22:42:18 10° NNW 22:45:54 36° W 22:49:17 11° SSW
SL-16 R/B 3.4 22:42:14 10° SW 22:47:36 43° WNW 22:53:00 10° NNE
Abrixas rocket 2.7 22:44:37 10° WNW 22:47:57 50° SSW 22:48:52 37° SSE
Lacrosse 4 Rocket 3.6 22:50:40 11° E 22:50:40 11° E 22:51:00 10° ENE
Aureole 2 Rocket 3.7 22:45:58 10° SW 22:49:48 45° WNW 22:53:20 10° N
Cosmos 1602 Rocket 4.1 22:45:38 10° SSW 22:50:02 59° W 22:54:29 10° N
ARGOS 3.1 22:48:12 24° SSE 22:51:36 79° ENE 22:57:04 10° NNW
H-2A R/B 2.7 22:50:29 25° ESE 22:52:45 39° ENE 22:57:25 10° N
NOAA 11 4.1 22:52:09 25° SSE 22:55:23 78° ENE 23:00:50 10° N
Cosmos 1825 Rocket 3.8 22:54:01 31° SSE 22:55:48 51° E 23:00:08 10° NNE
Cosmos 1634 Rocket 4.0 22:52:38 10° N 22:58:47 65° E 23:02:13 27° SSE
Cosmos 1812 Rocket 3.9 22:55:18 10° NNW 22:59:38 62° W 23:02:13 23° S
Cosmos 1238 4.4 22:58:11 29° SSW 22:59:40 69° W 23:02:42 10° N
SPOT 1/Viking Rocket 3.7 22:57:45 22° S 23:01:06 68° WSW 23:06:17 10° NNW
Cosmos 1992 Rocket 4.1 22:55:54 10° NNW 23:01:07 65° ENE 23:03:30 32° SE
Cosmos 1461 3.3 22:57:51 10° NW 23:02:04 53° WSW 23:03:39 32° S
Cosmos 1346 Rocket 3.1 23:10:07 43° ESE 23:10:33 45° E 23:14:18 10° NNE
Cosmos 1066 Rocket 4.2 23:11:09 27° S 23:14:21 74° E 23:20:08 10° NNE
CZ-4 R/B 4.2 23:09:32 10° N 23:14:30 70° WNW 23:18:29 16° SSW
DEBRIS 4.3 23:12:40 10° W 23:14:58 16° SW 23:15:01 16° SW
Geosat 3.9 23:10:20 10° NNE 23:15:24 89° WNW 23:19:56 13° SSW
Cosmos 1515 4.0 23:13:48 29° SSW 23:15:35 65° W 23:19:27 10° N
Cosmos 1603 4.1 23:10:34 10° SW 23:16:08 63° WNW 23:21:43 10° NNE
Cosmos 1190 Rocket 4.2 23:14:26 35° SSE 23:16:18 52° ESE 23:21:28 10° NNE
Cosmos 2279 Rocket 4.1 23:19:34 10° N 23:25:46 62° E 23:28:18 36° SE
Meteor 1-21 4.4 23:26:42 38° SSE 23:28:44 58° E 23:34:26 10° NNE
Spot 4 3.9 23:27:26 44° SE 23:28:48 65° ENE 23:33:32 10° N
Cosmos 1842 4.0 23:32:29 39° E 23:32:29 39° E 23:35:55 10° NNE
Cosmos 676 Rocket 4.4 23:31:30 40° SE 23:32:17 43° ESE 23:37:19 10° NNE
Landsat 7 4.1 23:35:43 37° SSW 23:37:23 59° W 23:42:06 10° NNW
Cosmos 1953 Rocket 3.7 23:38:28 43° SSW 23:39:50 72° W 23:44:16 10° N
Cosmos 1943 3.1 23:39:29 27° SSW 23:42:42 89° WNW 23:48:26 10° NNE
Cosmos 1766 3.2 23:45:50 10° N 23:49:51 82° W 23:50:05 76° SSW
Terra 2.1 23:52:00 45° SSW 23:53:11 59° W 23:57:54 10° NNW
Spot 2 4.5 23:48:33 10° N 23:53:14 72° WNW 23:54:59 39° SSW
